Location: Bacharowice
(49.9333°N, 19.5833°E)
Time: 21:30:12
(UTC+00:00)

USA 81 - Pass Details

Date: 11 May 2021
Orbit: 784 x 789 km, 85.0° (Epoch: 12 June)

Event Time Altitude Azimuth Distance (km) Brightness Sun altitude
Rises 23:41:18 0° 351° (N) 3,299 8.4 -20.5°
Reaches altitude 10° 23:43:42 10° 348° (NNW) 2,365 7.4 -20.4°
Maximum altitude 23:48:56 63° 269° (W) 883 4.1 -20.1°
Enters shadow 23:50:39 41° 207° (SSW) 1,139 4.4 -20.1°
